Content
SEND FEEDBACK

United States of America Flag

SURING, WISCONSIN


Home > North America > United States > Wisconsin
Elevation: 877 feet     Latitude: 45 01N     Longitude: 088 25W

WEATHER
 
SELECT A DAY
Number of Records: 174,791;   Date Range: 10/21/08 - 3/22/16
 
SHARE

PRINT THIS DATA

[ ← Previous Day ]
WEATHER ALMANAC - JANUARY 30, 2013
[ Next Day → ]
[ °C ]   °F
Weather ElementAverageHighLow
Temperature27 °F33.8 °F (12:35 am) (4:55 pm)
Dewpoint23.5 °F32 °F (12:35 am) (7:00 pm)
Humidity86.6 %100 % (5:35 am)68 % (10:15 pm)
Barometer29.42 in29.52 in (12:35 am)29.32 in (1:35 pm)
Wind Speed1.5 mph9.2 mph (4:55 am)
Weather ElementAverage
Visibility3.6 mi
Wind DirectionNE (40.6 °)

Weather ElementTotal
Precipitation---
Heating Degree Days48.1 (Base 65)
Averaged from 63 records on January 30, 2013
WEATHER CONDITIONS BREAKOUT
WIND DIRECTION BREAKOUT
WEATHER BY HOUR - JANUARY 30, 2013
[ °C ]   °F
Local TimeTemperatureDewpointHumidityBarometerVisibilityWind DirectionWind SpeedGust SpeedPrecipitationEventsConditions
12:35 AM33.8 °F32.0 °F93 %29.52 in7.0 miNorth (350°)4.6 mphRainLight Rain
12:55 AM33.8 °F32.0 °F93 %29.52 in3.0 miNorth (360°)6.9 mphRainLight Rain
1:15 AM33.8 °F32.0 °F93 %29.49 in4.0 miNorth (360°)5.8 mphRainLight Rain
1:55 AM33.8 °F32.0 °F93 %29.49 in4.0 miNorth (10°)6.9 mphSnowLight Snow
2:15 AM33.8 °F32.0 °F93 %29.48 in4.0 miNNE (20°)5.8 mphSnowLight Snow
2:35 AM33.8 °F32.0 °F93 %29.45 in7.0 miNE (40°)5.8 mphOvercast
2:55 AM33.8 °F32.0 °F93 %29.46 in10.0 miNorth (350°)4.6 mphOvercast
3:15 AM33.8 °F32.0 °F93 %29.47 in10.0 miNorth (350°)3.5 mphOvercast
3:55 AM33.8 °F32.0 °F93 %29.47 in10.0 miNNW (340°)3.5 mphOvercast
4:15 AM33.8 °F32.0 °F93 %29.47 in10.0 miNorth (10°)6.9 mphOvercast
4:35 AM33.8 °F32.0 °F93 %29.45 in10.0 miNorth (360°)5.8 mphOvercast
4:55 AM33.8 °F32.0 °F93 %29.46 in4.0 miNorth (10°)9.2 mphSnowLight Snow
5:15 AM33.8 °F32.0 °F93 %29.46 in5.0 miCalmSnowLight Snow
5:35 AM32.0 °F32.0 °F100 %29.44 in2.5 miCalmSnowLight Snow
5:55 AM32.0 °F30.2 °F93 %29.42 in2.5 miCalmSnowLight Snow
6:15 AM32.0 °F30.2 °F93 %29.41 in1.8 miCalmSnowLight Snow
6:35 AM32.0 °F30.2 °F93 %29.47 in1.2 miCalmSnowLight Snow
6:55 AM32.0 °F30.2 °F93 %29.44 in2.0 miCalmSnowLight Snow
7:15 AM32.0 °F30.2 °F93 %29.41 in2.5 miCalmSnowLight Snow
7:35 AM32.0 °F28.4 °F87 %29.42 in2.0 miCalmSnowLight Snow
7:55 AM32.0 °F28.4 °F87 %29.42 in2.0 miCalmSnowLight Snow
8:15 AM30.2 °F28.4 °F93 %29.41 in2.0 miCalmSnowLight Snow
8:35 AM30.2 °F28.4 °F93 %29.41 in1.0 miCalmSnowLight Snow
8:55 AM30.2 °F28.4 °F93 %29.41 in0.8 miCalmSnowLight Snow
9:15 AM30.2 °F28.4 °F93 %29.42 in1.2 miCalmSnowLight Snow
9:35 AM30.2 °F26.6 °F86 %29.42 in0.8 miCalmSnowLight Snow
9:55 AM28.4 °F26.6 °F93 %29.40 in0.5 miCalmSnowLight Snow
10:15 AM28.4 °F26.6 °F93 %29.39 in0.5 miCalmSnowSnow
10:35 AM28.4 °F26.6 °F93 %29.39 in0.5 miCalmSnowLight Snow
10:55 AM28.4 °F26.6 °F93 %29.37 in0.8 miCalmSnowLight Snow
11:15 AM28.4 °F26.6 °F93 %29.37 in0.8 miCalmSnowLight Snow
11:35 AM28.4 °F24.8 °F86 %29.37 in1.2 miCalmSnowLight Snow
11:55 AM28.4 °F26.6 °F93 %29.35 in0.8 miCalmSnowLight Snow
12:15 PM28.4 °F26.6 °F93 %29.36 in0.5 miCalmSnowSnow
12:35 PM28.4 °F26.6 °F93 %29.35 in0.5 miCalmSnowSnow
1:15 PM28.4 °F24.8 °F86 %29.33 in0.8 miCalmSnowLight Snow
1:35 PM28.4 °F24.8 °F86 %29.32 in0.8 miCalmSnowLight Snow
1:55 PM28.4 °F23.0 °F80 %29.32 in0.8 miCalmSnowLight Snow
2:15 PM28.4 °F23.0 °F80 %29.32 in1.5 miCalmSnowLight Snow
2:55 PM28.4 °F23.0 °F80 %29.33 in1.0 miCalmSnowLight Snow
3:15 PM26.6 °F21.2 °F80 %29.34 in1.5 miCalmSnowLight Snow
3:35 PM26.6 °F21.2 °F80 %29.35 in1.5 miCalmSnowLight Snow
4:15 PM26.6 °F21.2 °F80 %29.37 in1.2 miCalmSnowLight Snow
4:35 PM23.0 °F17.6 °F80 %29.37 in2.0 miCalmSnowLight Snow
4:55 PM0.0 °F0.0 °F29.38 inCalm
5:15 PM23.0 °F17.6 °F80 %29.39 in2.0 miNorthSnowLight Snow
5:35 PM21.2 °F19.4 °F93 %29.40 in1.0 miNorthSnowLight Snow
5:55 PM21.2 °F17.6 °F86 %29.41 in1.8 miNorthSnowLight Snow
6:15 PM21.2 °F17.6 °F86 %29.42 in1.2 miNorthSnowLight Snow
6:55 PM19.4 °F14.0 °F80 %29.43 in2.0 miNorthSnowLight Snow
7:15 PM19.4 °F12.2 °F74 %29.43 in2.5 miNorthSnowLight Snow
7:35 PM19.4 °F12.2 °F74 %29.44 in5.0 miNorthHaze
7:55 PM19.4 °F12.2 °F74 %29.44 in10.0 miNorthOvercast
8:15 PM19.4 °F12.2 °F74 %29.45 in7.0 miNorthOvercast
8:35 PM19.4 °F14.0 °F80 %29.45 in3.0 miNorthSnowLight Snow
8:55 PM19.4 °F12.2 °F74 %29.46 in7.0 miNorthSnowLight Snow
9:15 PM19.4 °F12.2 °F74 %29.47 in5.0 miNorthSnowLight Snow
9:55 PM19.4 °F12.2 °F74 %29.47 in7.0 miNorthSnowLight Snow
10:15 PM19.4 °F10.4 °F68 %29.47 in10.0 miNorthOvercast
10:35 PM19.4 °F12.2 °F74 %29.47 in5.0 miNorthHaze
11:15 PM17.6 °F12.2 °F79 %29.49 in10.0 miNorthMostly Cloudy
11:35 PM17.6 °F12.2 °F79 %29.50 in7.0 miNorthMostly Cloudy
11:55 PM17.6 °F12.2 °F79 %29.50 in10.0 miNorthScattered Clouds
Hourly data recorded from KEZS, located miles away from Suring, Wisconsin




STORIES FROM OUR PARTNERS